www.pogodaiklimat.ru

Погода и климат >> Архив погоды >> Греция >> Серре


ПОГОДА в Серре

  • Прогноз погоды в Серре
  • Монитор погоды в Серре

АРХИВ ПОГОДЫ в Серре

Время (UTC), дата Ветер
(напр.,м/с)
 
Видим.   Явления Облачность Т
(С)
Тd
(С)
f
(%)
Тe
(С)
Тes
(С)
Комфортность P
(гПа)
Po
(гПа)
Тmin
(С)
Tmax
(С)
R
(мм)
R24
(мм)
S
(см)
06 15.08 нст 1
{4}
н/о {осадки} н/о +23.1 +20.7 86 +30 +30 очень
душно
1009.3 1005.8 +19.8 12
09 15.08
{4}
н/о н/о +27.4 +18.3 58 1009.5 1006.0
12 15.08
{5}
н/о н/о +32.4 +14.5 34 1008.1 1004.6
15 15.08
{7}
н/о н/о +31.7 +13.9 34 1007.4 1003.9
18 15.08
{6}
н/о н/о +26.4 +14.7 49 1008.4 1004.9 +34.4
21 15.08 штиль 0
{5}
н/о н/о +23.2 +15.0 60 +27 +27 душно 1010.7 1007.1
00 16.08 штиль 0
{2}
н/о н/о +21.0 +14.4 66 +24 +24 комфорт 1011.1 1007.5
03 16.08 штиль 0
{3}
н/о н/о +19.7 +15.2 75 +22 +22 комфорт 1011.9 1008.3
06 16.08 штиль 0
{2}
н/о н/о +22.3 +15.0 63 +26 +26 жарко 1013.0 1009.5 +19.0
09 16.08
{3}
н/о н/о +28.0 +14.0 42 1012.8 1009.3
12 16.08
{5}
н/о н/о +32.7 +10.3 25 1011.2 1007.7
15 16.08
{5}
н/о н/о +32.4 +9.9 25 1010.1 1006.6
18 16.08
{4}
н/о н/о +26.1 +16.4 55 1010.9 1007.4 +33.5
21 16.08 штиль 0
{4}
н/о н/о +22.1 +13.9 60 +25 +25 комфорт 1012.7 1009.2
00 17.08 штиль 0
{3}
н/о н/о +20.3 +15.3 73 +23 +23 комфорт 1013.2 1009.6
03 17.08 штиль 0
{3}
н/о н/о +18.5 +16.1 86 +19 +19 1013.5 1009.9
06 17.08 нст 1
{3}
10 км 5/3 600 м
[Cu hum Ac und]
+22.8 +12.1 51 +25 +28 комфорт 1015.0 1010.9 +18.5 268
09 17.08 нст 1
{4}
10 км 5/1 750 м
[Cu hum Ac und]
+28.0 +9.2 31 +28 +40 жарко 1014.8 1010.8
12 17.08
{6}
10 км 3/3 600 м
[Cu hum]
+31.8 +7.6 22 1013.1 1009.1
15 17.08 В 4
{9}
н/о н/о +28.0 +12.5 38 +29 +29 жарко 1012.7 1009.2
18 17.08
{11}
н/о н/о +24.3 +12.5 48 1014.0 1010.4 +33.3
21 17.08
{2}
н/о н/о +20.4 +13.1 63 1015.4 1011.8
00 18.08 штиль 0
{2}
н/о н/о +18.0 +13.5 75 +18 +18 1016.2 1012.6
03 18.08 штиль 0
{1}
н/о н/о +16.0 +14.2 89 +16 +16 1016.7 1013.0
06 18.08 штиль 0
{2}
н/о н/о +22.7 +13.1 55 +26 +26 жарко 1017.3 1013.7 +15.6
09 18.08
{3}
н/о н/о +29.4 +11.0 32 1016.7 1013.2
12 18.08
{6}
н/о н/о +33.7 +8.2 21 1015.1 1011.6
15 18.08 ЮВ 3
{6}
н/о н/о +32.2 +9.7 25 +32 +32 жарко 1014.1 1010.7
18 18.08
{7}
н/о н/о +26.0 +11.8 41 1015.3 1011.8 +35.0
21 18.08 штиль 0
{4}
н/о н/о +22.4 +10.2 46 +24 +24 комфорт 1016.2 1012.6
00 19.08 штиль 0
{2}
н/о н/о +19.8 +12.2 62 +21 +21 комфорт 1016.6 1012.9
03 19.08
{2}
н/о н/о +17.7 +14.4 81 1017.5 1013.9
06 19.08 нст 1
{2}
10 км ясно +22.6 +14.2 59 +26 +31 жарко 1018.2 1014.1 +17.0 272
09 19.08
{2}
10 км 3/3 600 м
[Cu hum]
+29.2 +12.7 36 1017.5 1013.5
12 19.08
{4}
10 км 3/3 600 м
[Cu hum]
+34.2 +8.6 21 1016.3 1012.4
15 19.08 В 3
{7}
н/о н/о +32.4 +10.6 26 +32 +32 жарко 1015.6 1012.1
18 19.08
{7}
н/о н/о +26.7 +10.1 35 1016.8 1013.3 +35.6
21 19.08 штиль 0
{5}
н/о н/о +22.6 +12.2 52 +25 +25 комфорт 1017.6 1014.0
00 20.08 штиль 0
{3}
н/о н/о +19.9 +13.2 65 +22 +22 комфорт 1018.2 1014.6
03 20.08
{3}
н/о н/о +17.9 +15.2 84 1018.8 1015.1
06 20.08 штиль 0
{2}
10 км ясно +24.0 +14.5 55 +27 +32 жарко 1019.6 1015.5 +17.9 274
09 20.08
{3}
10 км 1/1 600 м
[Cu hum]
+31.6 +12.5 31 1019.1 1015.1
12 20.08
{5}
10 км 1/1 600 м
[Cu hum]
+35.0 +10.5 23 1017.2 1013.3
15 20.08 ЮВ 3
{7}
н/о н/о +31.0 +11.4 30 +31 +31 жарко 1017.0 1013.5
18 20.08
{7}
н/о н/о +26.3 +10.5 37 1018.1 1014.5 +36.0
21 20.08
{4}
н/о н/о +22.3 +12.4 53 1019.4 1015.8
00 21.08 штиль 0
{2}
н/о н/о +19.4 +12.8 66 +21 +21 комфорт 1019.4 1015.8
03 21.08 штиль 0
{2}
н/о н/о +16.2 +14.1 87 +16 +16 1019.1 1015.4
06 21.08 штиль 0
{2}
н/о н/о +22.9 +13.7 56 +26 +26 жарко 1019.4 1015.8 +15.9
09 21.08
{3}
н/о н/о +31.2 +11.0 29 1018.4 1014.9
12 21.08 нст 1
{4}
н/о н/о +35.5 +6.1 16 +33 +33 жарко 1016.5 1013.0
15 21.08
{5}
н/о н/о +36.0 +8.7 19 1015.5 1012.1
18 21.08 штиль 0
{5}
н/о н/о +26.9 +10.3 35 +27 +27 жарко 1016.0 1012.4 +37.0
21 21.08
{3}
н/о н/о +25.5 +10.6 39 1017.7 1014.2
00 22.08
{2}
н/о н/о +20.0 +13.2 65 1018.0 1014.4
03 22.08 штиль 0
{2}
н/о н/о +18.7 +12.2 66 +19 +19 1018.1 1014.4

 

Местоположение метеостанции Серре (Греция): широта 41.07 долгота 23.57 высота над уровнем моря 35 м.

В архиве по умолчанию представлена погода в Серре за последнюю неделю. Архивные данные за месяц целиком и за предыдущие месяцы, начиная с января 2011 года, Вы можете получить, выбрав интересующий диапазон дат из раскрывающегося списка и нажав кнопку "Ввод!".


*Определитесь, кто Вы:
робот инопланетянин человек

Внимание! Время в таблицах - всемирное. Для получения местного времени необходимо прибавить поправку, которая равна 2 ч.

Смотрите также архив погоды в соседних городах и на ближайших метеорологических станциях:

Погода в Сандански (Болгария) (56 км)
Погода в Доксато (Греция) (57 км)
Погода в Салониках (Греция) (79 км)
Погода в Струмице (Македония) (87 км)
Погода в Хрисополи (Греция) (87 км)
Погода в Гевгелии (Македония) (90 км)
Погода в Берово (Македония) (94 км)
Погода в Демир-Капия (Македония) (117 км)
Погода на Мусале (Болгария) (123 км)
Погода в Винице (Македония) (127 км)

Пояснения к столбцам:

Ветер - указаны скорость ветра в м/с - средняя за 10 мин, порывы в срок и между сроками (в фигурных скобках) и направление, откуда дует ветер: С - северный, СВ - северо-восточный, В - восточный, ЮВ - юго-восточный, Ю - южный, ЮЗ - юго-западный, З - западный, СЗ - северо-западный.
Видимость - горизонтальная дальность видимости в метрах или километрах. При видимости от 1 до 10 км при отсутствии осадков обычно наблюдается дымка, при ухудшении видимости до 1 км и менее - туман. В сухую погоду видимость может ухудшаться дымом, пылью или мглою.
Явления - указаны атмосферные явления, наблюдавшиеся в срок или в последний час перед сроком; фигурными скобками обозначены явления, наблюдавшиеся между сроками (за 1-3 часа до срока); квадратными скобками обозначены град или гололедные отложения с указанием их диаметра в мм.
Облачность - указаны через наклонную черту общая и нижняя облачность в баллах и высота нижней границы облаков в метрах; квадратными скобками обозначены формы облаков: Ci - перистые, Cs - перисто-слоистые, Cc - перисто-кучевые, Ac - высококучевые, As - высокослоистые, Sc - слоисто-кучевые, Ns - слоисто-дождевые, Cu - кучевые, Cb - кучево-дождевые. Подробнее классификацию облаков см. в Атласе облаков (PDF).
T - Температура воздуха - температура, измеренная на высоте 2 м над землей.
Td - Температура точки росы - температура, при понижении до которой содержащийся в воздухе водяной пар достигнет насыщения.
f - Относительная влажность воздуха - влажноcть воздуха, измеренная на высоте 2 м над землей.
Te - Эффективная температура - температура, которую ощущает одетый по сезону человек в тени. Характеристика душности погоды. При расчете учитывается влияние влажности воздуха и скорости ветра на теплоощущения человека.
Tes - Эффективная температура на солнце - температура, которую ощущает человек, с поправкой на солнечный нагрев. Характеристика знойности погоды. Зависит от высоты солнца над горизонтом, облачности и скорости ветра. Ночью, в пасмурную погоду, а также при ветре 12 м/с и более поправка равна нулю.
P - Атмосферное давление - приведенное к уровню моря атмосферное давление.
Po - Атмосферное давление - измеренное на уровне метеостанции атмосферное давление.
Tmin - Минимальная температура - минимум температуры воздуха на высоте 2 м над землей.
Tmax - Максимальная температура - максимум температуры воздуха на высоте 2 м над землей.
R - Количество осадков - Количество выпавших осадков за период времени, мм. При наведении курсора мыши на число - период времени, за который выпало указанное количество осадков.
R24 - Количество осадков - Количество выпавших осадков за 24 часа, мм.
S - Снежный покров - Высота снежного покрова, см. При наведении курсора мыши на число - состояние снежного покрова и степень покрытия местности в баллах.